N2XGL-1 Weather Reports


time (UTC)temp
F
wind
direction
speed
knots
gust
knots
rain 1hr
in
rain 24hr
in
rain mn
in
humidity
%
barometer
mb
20260906221221 87 0 0.0 0.9 0.00 0.00 0.00 39 1000.8
20260906215506 87 0 2.6 6.1 0.00 0.00 0.00 41 1001.1
20260906214516 87 90 1.7 3.5 0.00 0.00 0.00 40 1001.2
20260906213622 87 292 0.9 3.5 0.00 0.00 0.00 42 1001.4
20260906213531 87 292 0.9 3.5 0.00 0.00 0.00 42 1001.4
20260906212830 89 180 2.6 7.8 0.00 0.00 0.00 39 1001.4
20260906212706 89 180 2.6 7.8 0.00 0.00 0.00 39 1001.4
20260906210951 87 158 2.6 4.3 0.00 0.00 0.00 44 1001.8
20260906210517 85 158 2.6 5.2 0.00 0.00 0.00 44 1001.8
20260906210051 85 158 2.6 5.2 0.00 0.00 0.00 44 1001.8
20260906205141 85 112 1.7 4.3 0.00 0.00 0.00 41 1001.8
20260906204526 86 68 1.7 4.3 0.00 0.00 0.00 43 1002.0
20260906204321 86 68 1.7 4.3 0.00 0.00 0.00 43 1002.0
20260906203436 86 202 0.9 4.3 0.00 0.00 0.00 43 1001.9
20260906203341 86 202 0.9 4.3 0.00 0.00 0.00 43 1001.9
20260906202430 88 158 2.6 6.1 0.00 0.00 0.00 40 1002.0
20260906201531 88 112 2.6 6.1 0.00 0.00 0.00 42 1002.0
20260906200936 88 158 1.7 4.3 0.00 0.00 0.00 43 1002.0
20260906200646 88 158 1.7 4.3 0.00 0.00 0.00 43 1002.0
20260906195941 87 45 2.6 6.1 0.00 0.00 0.00 44 1002.1
20260906195831 87 45 2.6 6.1 0.00 0.00 0.00 44 1002.1
20260906194951 87 202 1.7 4.3 0.00 0.00 0.00 44 1002.2
20260906194309 87 248 1.7 3.5 0.00 0.00 0.00 44 1002.3
20260906194121 87 248 1.7 3.5 0.00 0.00 0.00 44 1002.3
20260906193236 87 202 1.7 4.3 0.00 0.00 0.00 44 1002.5
20260906192532 86 248 2.6 4.3 0.00 0.00 0.00 48 1002.6
20260906192430 86 248 2.6 4.3 0.00 0.00 0.00 48 1002.6
20260906191506 84 0 2.6 9.6 0.00 0.00 0.00 46 1002.7
20260906190530 85 338 2.6 4.3 0.00 0.00 0.00 49 1002.7
20260906185919 84 292 1.7 4.3 0.00 0.00 0.00 50 1002.9
20260906185720 84 292 1.7 4.3 0.00 0.00 0.00 50 1002.9
20260906184736 83 292 3.5 6.1 0.00 0.00 0.00 52 1003.3
20260906183936 84 112 0.9 3.5 0.00 0.00 0.00 50 1003.5
20260906183820 84 112 0.9 3.5 0.00 0.00 0.00 50 1003.5
20260906182830 84 202 2.6 4.3 0.00 0.00 0.00 52 1003.7
20260906182021 82 180 1.7 4.3 0.00 0.00 0.00 53 1003.8
20260906181106 81 202 1.7 4.3 0.00 0.00 0.00 55 1004.0
20260906180206 81 45 1.7 3.5 0.00 0.00 0.00 55 1004.0
20260906175433 81 45 0.9 2.6 0.00 0.00 0.00 54 1004.3
20260906175205 81 45 0.9 2.6 0.00 0.00 0.00 54 1004.3
20260906174310 81 135 1.7 3.5 0.00 0.00 0.00 58 1004.7
20260906173528 79 135 1.7 4.3 0.00 0.00 0.00 60 1004.9
20260906173451 79 135 1.7 4.3 0.00 0.00 0.00 60 1004.9
20260906172536 79 68 2.6 5.2 0.00 0.00 0.00 58 1004.9
20260906171626 78 135 1.7 4.3 0.00 0.00 0.00 61 1005.0
20260906170745 76 135 1.7 3.5 0.00 0.00 0.00 64 1005.0
20260906164248 75 158 1.7 4.3 0.00 0.00 0.00 67 1005.3
20260906164036 75 158 1.7 4.3 0.00 0.00 0.00 67 1005.3
20260906163528 73 225 0.9 2.6 0.00 0.00 0.00 69 1005.4
20260906163220 73 225 0.9 2.6 0.00 0.00 0.00 69 1005.4
20260906162246 73 68 0.9 2.6 0.00 0.00 0.00 68 1005.2
20260906161529 72 45 1.7 4.3 0.00 0.00 0.00 70 1005.2
20260906161416 72 45 1.7 4.3 0.00 0.00 0.00 70 1005.2
20260906160526 72 0 1.7 3.5 0.00 0.00 0.00 70 1005.2
20260906155706 72 68 1.7 5.2 0.00 0.00 0.00 69 1005.3
20260906153140 71 45 1.7 5.2 0.00 0.00 0.00 72 1005.5
20260906153015 71 45 1.7 5.2 0.00 0.00 0.00 72 1005.5
20260906152140 70 45 2.6 5.2 0.00 0.00 0.00 73 1005.5
20260906152040 70 45 2.6 5.2 0.00 0.00 0.00 73 1005.5
20260906151111 69 68 1.7 4.3 0.00 0.00 0.00 76 1005.7
20260906150240 67 0 1.7 4.3 0.00 0.00 0.00 79 1005.6
20260906145519 67 45 0.9 4.3 0.00 0.00 0.00 80 1005.7
20260906145307 67 45 0.9 4.3 0.00 0.00 0.00 80 1005.7
20260906144346 67 22 2.6 5.2 0.00 0.00 0.00 81 1005.8
20260906143530 66 22 1.7 5.2 0.00 0.00 0.00 82 1005.7
20260906143455 66 22 1.7 5.2 0.00 0.00 0.00 82 1005.7
20260906142512 65 0 1.7 6.1 0.00 0.00 0.00 86 1005.7
20260906141706 64 0 2.6 5.2 0.00 0.00 0.00 86 1005.7
20260906140928 64 0 1.7 4.3 0.00 0.00 0.00 87 1005.8
20260906140752 64 0 1.7 4.3 0.00 0.00 0.00 87 1005.8
20260906135951 63 0 1.7 3.5 0.00 0.00 0.00 87 1005.8
20260906135825 63 0 1.7 3.5 0.00 0.00 0.00 87 1005.8
20260906134954 62 0 0.9 2.6 0.00 0.00 0.00 85 1005.9
20260906134841 62 0 0.9 2.6 0.00 0.00 0.00 85 1005.9
20260906134125 62 0 0.0 0.9 0.00 0.00 0.00 84 1005.9
20260906134011 62 0 0.0 0.9 0.00 0.00 0.00 84 1005.9
20260906133346 62 0 0.0 1.7 0.00 0.00 0.00 84 1006.0
20260906133050 62 0 0.0 1.7 0.00 0.00 0.00 84 1006.0
20260906132058 62 338 0.9 2.6 0.00 0.00 0.00 84 1005.9
20260906131156 62 338 0.9 2.6 0.00 0.00 0.00 83 1005.8
20260906130526 62 248 0.9 1.7 0.00 0.00 0.00 82 1005.9
20260906130216 62 248 0.9 1.7 0.00 0.00 0.00 82 1005.9
20260906125455 62 338 0.9 1.7 0.00 0.00 0.00 82 1005.7
20260906125235 62 338 0.9 1.7 0.00 0.00 0.00 82 1005.7
20260906124527 62 0 0.9 2.6 0.00 0.00 0.00 82 1005.7
20260906124236 62 0 0.9 2.6 0.00 0.00 0.00 82 1005.7
20260906123355 63 0 1.7 3.5 0.00 0.00 0.00 81 1005.7
20260906122451 63 0 1.7 3.5 0.00 0.00 0.00 81 1005.6
20260906121641 63 0 1.7 3.5 0.00 0.00 0.00 80 1005.6
20260906120725 63 22 0.9 2.6 0.00 0.00 0.00 80 1005.6
20260906120139 63 22 0.9 3.5 0.00 0.00 0.00 79 1005.6
20260906115801 63 22 0.9 3.5 0.00 0.00 0.00 79 1005.6
20260906112945 62 0 2.6 4.3 0.00 0.00 0.00 77 1005.6
20260906112131 62 338 0.9 3.5 0.00 0.00 0.00 77 1005.6
20260906111231 63 22 0.9 1.7 0.00 0.00 0.00 75 1005.5
20260906110527 63 0 0.0 0.9 0.00 0.00 0.00 74 1005.6
20260906110401 63 0 0.0 0.9 0.00 0.00 0.00 74 1005.6
20260906105526 63 338 0.9 1.7 0.00 0.00 0.00 74 1005.6
20260906104555 63 22 0.9 1.7 0.00 0.00 0.00 73 1005.7
20260906103704 63 292 0.9 1.7 0.00 0.00 0.00 72 1005.7
20260906103606 63 292 0.9 1.7 0.00 0.00 0.00 72 1005.7
20260906102910 63 0 0.0 1.7 0.00 0.00 0.00 71 1005.6
20260906102625 63 0 0.0 1.7 0.00 0.00 0.00 71 1005.6
20260906101821 64 338 0.9 1.7 0.00 0.00 0.00 70 1005.6
20260906100926 64 0 0.9 1.7 0.00 0.00 0.00 69 1005.5
20260906100054 64 22 0.9 1.7 0.00 0.00 0.00 69 1005.5
20260906095231 65 0 0.0 0.9 0.00 0.00 0.00 68 1005.5
20260906095201 65 0 0.0 0.9 0.00 0.00 0.00 68 1005.5
20260906094345 65 22 0.9 1.7 0.00 0.00 0.00 68 1005.6
20260906092501 66 0 2.6 6.1 0.00 0.00 0.00 67 1005.0
20260906091512 66 0 3.5 7.8 0.00 0.00 0.00 66 1004.6
20260906090703 66 0 2.6 4.3 0.00 0.00 0.00 64 1004.6
20260906090625 66 0 2.6 4.3 0.00 0.00 0.00 64 1004.6
20260906085914 67 0 2.6 5.2 0.00 0.00 0.00 62 1004.7
20260906085746 67 0 2.6 5.2 0.00 0.00 0.00 62 1004.7
20260906084107 67 0 2.6 6.1 0.00 0.00 0.00 61 1004.7
20260906083230 68 0 2.6 7.8 0.00 0.00 0.00 61 1004.7
20260906083147 68 0 2.6 7.8 0.00 0.00 0.00 61 1004.7
20260906082337 68 0 3.5 7.8 0.00 0.00 0.00 61 1004.7
20260906081425 68 0 3.5 7.8 0.00 0.00 0.00 61 1004.8
20260906080729 68 0 3.5 8.7 0.00 0.00 0.00 60 1004.7
20260906080600 68 0 3.5 8.7 0.00 0.00 0.00 60 1004.7
20260906075626 69 0 3.5 7.8 0.00 0.00 0.00 59 1004.8
20260906074946 69 0 1.7 6.1 0.00 0.00 0.00 59 1004.7
20260906074806 69 0 1.7 6.1 0.00 0.00 0.00 59 1004.7
20260906073901 69 0 2.6 6.1 0.00 0.00 0.00 56 1004.7
20260906072449 69 22 1.7 3.5 0.00 0.00 0.00 55 1004.9
20260906072121 69 22 1.7 3.5 0.00 0.00 0.00 55 1004.9
20260906071447 69 0 1.7 3.5 0.00 0.00 0.00 55 1005.0
20260906071301 69 0 1.7 3.5 0.00 0.00 0.00 55 1005.0
20260906070326 69 22 1.7 5.2 0.00 0.00 0.00 55 1004.9
20260906065441 69 45 0.9 2.6 0.00 0.00 0.00 56 1004.6
20260906065351 69 45 0.9 2.6 0.00 0.00 0.00 56 1004.6
20260906064411 69 0 0.9 2.6 0.00 0.00 0.00 54 1004.6
20260906063456 69 338 0.9 4.3 0.00 0.00 0.00 54 1004.7
20260906062556 69 292 0.9 2.6 0.00 0.00 0.00 53 1004.7
20260906061736 69 315 0.9 2.6 0.00 0.00 0.00 53 1004.9
20260906060911 69 315 0.9 1.7 0.00 0.00 0.00 56 1004.9
20260906060230 70 292 1.7 3.5 0.00 0.00 0.00 56 1005.4
20260906055930 70 292 1.7 3.5 0.00 0.00 0.00 56 1005.4
20260906055138 71 270 0.9 2.6 0.00 0.00 0.00 54 1005.1
20260906055006 71 270 0.9 2.6 0.00 0.00 0.00 54 1005.1
20260906054016 72 248 0.9 3.5 0.00 0.00 0.00 49 1005.0
20260906053100 72 68 0.9 2.6 0.00 0.00 0.00 49 1004.9
20260906052210 72 68 1.7 4.3 0.00 0.00 0.00 49 1004.9
20260906051220 72 68 1.7 4.3 0.00 0.00 0.00 51 1004.8
20260906050323 72 45 2.6 4.3 0.00 0.00 0.00 50 1004.7
20260906050240 72 45 2.6 4.3 0.00 0.00 0.00 50 1004.7
20260906045349 73 225 0.9 1.7 0.00 0.00 0.00 55 1004.7
20260906045240 73 225 0.9 1.7 0.00 0.00 0.00 55 1004.7
20260906044455 73 0 0.0 1.7 0.00 0.00 0.00 52 1004.8
20260906044326 73 0 0.0 1.7 0.00 0.00 0.00 52 1004.8
20260906043501 73 180 1.7 5.2 0.00 0.00 0.00 50 1004.7
20260906042636 74 90 0.9 1.7 0.00 0.00 0.00 45 1004.5
20260906041641 74 45 0.9 2.6 0.00 0.00 0.00 45 1004.1
20260906040831 75 22 1.7 3.5 0.00 0.00 0.00 45 1003.9
20260906040740 75 22 1.7 3.5 0.00 0.00 0.00 45 1003.9
20260906034920 75 22 2.6 7.8 0.00 0.00 0.00 43 1003.6
20260906034035 76 0 3.5 7.0 0.00 0.00 0.00 44 1003.7
20260906033056 76 0 3.5 5.2 0.00 0.00 0.00 43 1003.6
20260906032313 77 0 3.5 5.2 0.00 0.00 0.00 41 1003.6
20260906032225 77 0 3.5 5.2 0.00 0.00 0.00 41 1003.6
20260906030421 78 45 2.6 5.2 0.00 0.00 0.00 40 1003.1
20260906025611 78 0 2.6 5.2 0.00 0.00 0.00 39 1003.0
20260906024757 77 0 2.6 4.3 0.00 0.00 0.00 38 1002.8
20260906023841 77 22 0.9 2.6 0.00 0.00 0.00 42 1002.9
20260906023801 77 22 0.9 2.6 0.00 0.00 0.00 42 1002.9
20260906022845 78 0 0.9 1.7 0.00 0.00 0.00 38 1002.8
20260906022805 78 0 0.9 1.7 0.00 0.00 0.00 38 1002.8
20260906021913 78 22 1.7 5.2 0.00 0.00 0.00 39 1002.8
20260906021836 78 22 1.7 5.2 0.00 0.00 0.00 39 1002.8
20260906020916 77 292 3.5 8.7 0.00 0.00 0.00 40 1002.5
20260906020051 78 292 3.5 8.7 0.00 0.00 0.00 41 1002.4
20260906015126 78 338 1.7 4.3 0.00 0.00 0.00 38 1002.4
20260906014405 79 292 1.7 4.3 0.00 0.00 0.00 38 1002.1
20260906014216 79 292 1.7 4.3 0.00 0.00 0.00 38 1002.1
20260906013316 80 292 2.6 5.2 0.00 0.00 0.00 37 1002.1
20260906012511 81 292 3.5 6.1 0.00 0.00 0.00 39 1002.1
20260906010716 83 270 5.2 8.7 0.00 0.00 0.00 34 1002.1
20260906005816 84 315 4.3 9.6 0.00 0.00 0.00 33 1002.2
20260906004919 84 270 6.1 10.4 0.00 0.00 0.00 32 1002.3
20260906004056 84 292 5.2 11.3 0.00 0.00 0.00 31 1002.4
20260906003531 84 292 4.3 12.2 0.00 0.00 0.00 32 1002.3
20260906003216 84 292 4.3 12.2 0.00 0.00 0.00 32 1002.3
20260906002335 83 292 4.3 9.6 0.00 0.00 0.00 32 1002.1
20260906001510 83 270 5.2 8.7 0.00 0.00 0.00 36 1002.1
20260906000706 84 270 3.5 7.8 0.00 0.00 0.00 39 1002.2
20260905235826 85 270 4.3 8.7 0.00 0.00 0.00 34 1002.2
20260905234840 86 270 3.5 5.2 0.00 0.00 0.00 32 1002.1
20260905234006 86 315 4.3 10.4 0.00 0.00 0.00 31 1002.0
20260905233011 87 0 0.0 1.7 0.00 0.00 0.00 32 1002.0
20260905232011 88 22 0.9 1.7 0.00 0.00 0.00 32 1001.9
20260905231021 88 270 0.9 2.6 0.00 0.00 0.00 28 1001.8
20260905230147 88 248 0.9 3.5 0.00 0.00 0.00 26 1001.7
20260905225245 89 315 0.9 2.6 0.00 0.00 0.00 26 1001.7
20260905224435 89 0 1.7 5.2 0.00 0.00 0.00 28 1001.7
20260905223510 89 0 1.7 5.2 0.00 0.00 0.00 27 1001.7
20260905222551 89 0 1.7 4.3 0.00 0.00 0.00 27 1001.7
20260905221736 90 0 1.7 5.2 0.00 0.00 0.00 26 1001.7